Temp
17 17 18 18 18 16 18 20 23 24 25 22 21 22 21 20 21 20 18 19 19 19 19 18 19 19 19 19 19 19 19 19 19 19 18 18 18 18 18 18 18 18 18 18 18 17 17 17 17
17 17 18 14 17 17 18 20 22 23 22 20 20 20 19 19 19 17 17 19 19 18 18 18 18 19 19 19 19 19 19 19 19 19 18 18 18 18 18 18 18 18 17 17 17 17 17 17 17
17 18 16 16 15 17 19 22 22 22 22 22 20 20 20 18 18 18 18 19 19 18 18 18 18 19 18 19 19 19 19 20 19 19 19 18 18 18 17 17 17 17 17 17 17 17 17 17 17
17 16 15 16 17 19 22 22 21 21 21 20 19 19 20 21 20 19 18 19 18 18 18 18 18 18 18 19 19 19 18 19 18 18 18 18 17 17 17 17 17 17 17 17 18 18 18 17 17
17 14 15 16 18 20 20 24 22 22 20 20 20 19 19 19 19 18 18 18 18 18 18 18 18 18 18 19 18 18 18 18 18 18 17 17 17 17 16 17 17 17 17 17 18 18 18 17 17
15 14 15 16 18 20 22 22 22 20 19 19 19 18 18 19 18 18 19 18 18 17 18 18 18 18 18 18 18 18 18 18 18 18 17 17 16 16 16 17 17 16 17 18 18 17 17 17 17
15 14 15 17 19 22 21 21 20 19 18 19 18 17 18 19 19 19 19 18 18 17 17 17 18 18 18 18 18 18 18 17 17 17 17 17 16 16 16 17 16 17 17 18 18 18 17 17 16
14 15 17 17 19 21 22 21 21 21 20 18 18 17 18 19 20 19 18 18 17 17 17 17 18 18 18 18 18 18 18 17 17 17 17 17 17 17 17 17 16 17 17 17 18 18 17 16 16
16 15 16 18 19 22 21 22 21 20 19 20 18 18 20 18 19 18 16 16 17 17 17 17 17 18 18 18 18 18 18 17 17 16 16 17 17 17 16 16 17 17 17 17 17 17 17 17 17
15 13 17 19 19 22 23 22 20 20 19 18 18 19 18 18 17 16 16 16 16 16 17 17 17 17 18 18 18 17 17 16 16 16 17 17 16 16 16 17 17 17 17 17 17 17 17 16 16
14 15 18 21 21 23 23 22 21 20 20 19 18 18 17 17 17 16 16 16 16 17 17 17 17 18 18 18 17 17 16 16 16 16 17 17 16 16 17 17 16 16 16 17 17 17 17 17 16
16 18 19 21 22 23 23 22 20 23 21 20 20 18 18 17 17 16 16 16 16 16 17 17 18 18 18 17 17 17 16 16 16 16 16 17 16 16 16 16 16 16 16 16 16 17 17 17 17
17 17 18 20 21 22 21 22 20 19 18 19 20 19 17 17 17 17 16 16 16 16 17 17 17 17 17 17 17 17 16 16 16 16 17 17 16 16 16 16 16 16 17 16 16 16 17 16 16
15 17 19 20 21 23 22 21 21 17 19 19 19 18 18 16 17 17 16 16 16 16 17 17 17 17 17 17 17 17 16 16 16 16 16 16 17 16 16 16 16 16 16 17 16 16 16 16 16
16 17 18 19 21 22 20 21 19 17 18 18 18 18 18 17 17 16 17 17 16 17 17 17 17 17 17 17 17 17 17 17 16 16 16 16 16 16 16 16 16 16 16 16 16 16 16 16 15
16 17 17 18 20 21 21 20 17 17 17 17 17 18 18 18 18 17 17 17 17 17 17 18 17 17 17 17 18 17 17 17 17 17 17 17 16 16 16 16 16 16 16 16 16 15 15 15 15
16 16 16 18 18 20 20 18 17 17 17 18 17 18 18 19 19 18 17 17 17 18 18 18 17 18 18 18 18 18 17 17 17 17 17 17 16 16 16 16 15 15 15 15 15 15 15 15 15
14 15 16 16 18 18 19 17 17 17 17 17 16 17 18 19 19 20 18 18 17 19 19 18 18 18 18 18 18 18 18 18 17 17 17 17 16 16 16 15 15 15 15 15 15 15 15 15 15
16 16 17 17 17 19 18 16 17 16 16 17 16 16 18 19 19 20 19 18 18 18 18 18 18 18 18 18 18 18 18 18 18 17 17 17 16 16 16 16 15 15 15 15 15 15 15 14 14
17 15 17 17 18 18 18 18 16 17 16 17 16 16 17 19 19 18 17 18 18 18 18 18 18 18 18 18 17 18 18 18 18 18 17 17 16 16 16 16 15 15 15 15 15 15 14 14 14
15 17 16 17 18 17 18 18 18 18 17 16 16 16 17 18 19 18 17 16 17 18 18 18 17 17 17 17 17 18 18 17 17 17 17 17 17 16 16 16 15 15 15 15 14 14 14 14 14
16 16 17 17 18 16 18 15 17 17 17 16 16 15 16 17 18 17 17 16 16 17 18 18 18 17 17 18 18 18 17 16 17 17 17 17 17 17 16 16 15 15 15 15 14 14 14 14 14
16 16 17 17 16 16 17 15 16 16 17 16 16 16 16 16 17 17 17 17 17 16 17 17 18 18 17 17 17 18 17 17 17 17 17 17 17 17 16 16 15 15 15 15 14 14 14 14 14
15 16 16 14 15 15 15 16 16 16 19 17 16 17 17 17 17 17 18 17 16 16 16 16 17 17 18 17 17 17 16 17 17 17 17 17 17 17 16 16 15 15 15 14 14 14 14 14 14
16 18 13 14 13 15 15 16 16 17 19 19 18 17 17 17 17 17 16 16 16 15 15 16 16 17 18 17 17 17 17 17 17 17 17 17 16 16 16 16 15 15 15 14 14 14 14 14 14
16 14 15 13 12 14 14 15 17 17 18 19 19 18 17 17 18 17 16 16 16 15 15 15 15 16 17 17 16 16 16 17 17 17 17 17 16 17 16 16 15 15 15 14 14 14 14 14 13
17 15 15 12 14 15 14 17 19 17 17 17 18 16 16 17 17 17 17 17 15 15 15 15 15 15 16 16 15 15 15 16 16 16 17 17 17 17 16 16 15 15 15 15 14 14 14 14 13
17 17 15 13 13 15 14 16 16 12 11 14 16 16 15 15 15 15 15 17 16 16 16 16 16 16 16 16 15 15 16 16 16 17 17 17 17 17 17 16 15 15 15 15 14 14 13 13 13
16 16 15 14 12 12 13 14 11 9 8 10 8 8 8 8 8 8 9 13 15 16 16 16 16 17 17 16 16 16 16 16 16 16 17 17 17 17 16 16 15 15 15 14 14 14 13 13 13
15 15 14 13 15 12 12 12 8 7 7 7 6 6 6 6 5 5 6 6 7 10 13 14 15 17 17 17 17 16 16 15 15 16 17 17 16 17 17 16 16 15 15 14 14 14 13 13 12
Height
781 781 782 785 808 813 812 799 777 777 773 770 768 776 787 791 795 815 800 803 805 809 815 817 819 820 822 823 825 828 830 830 833 835 835 837 839 839 839 841 840 841 843 844 846 848 849 850 850
779 781 783 791 812 820 810 789 784 773 772 775 774 781 790 799 793 799 802 805 807 810 815 817 820 822 823 825 827 830 831 833 836 836 838 839 841 842 841 843 844 844 845 846 849 852 852 852 854
779 781 786 796 811 810 801 779 775 771 768 773 781 782 788 799 796 799 803 806 808 813 817 819 822 823 824 827 830 831 833 834 836 840 841 841 843 845 845 847 846 847 849 850 851 853 855 855 856
778 781 787 799 802 788 776 769 765 769 773 773 779 792 790 792 795 797 803 806 810 814 818 821 823 825 827 828 833 835 836 833 839 842 842 844 845 847 849 849 849 851 853 853 855 857 858 857 859
775 781 797 798 789 779 771 762 763 769 775 778 777 795 797 795 796 802 805 808 811 815 819 822 824 827 830 829 835 838 836 838 842 845 847 848 850 851 852 852 854 855 855 857 859 860 859 859 861
777 781 796 798 784 773 766 762 766 773 778 781 783 793 801 798 799 805 807 810 813 816 821 824 826 830 833 833 837 839 839 842 845 847 850 850 852 853 854 855 857 858 858 860 862 863 862 863 864
771 783 786 783 778 771 766 758 768 772 779 782 778 798 801 800 801 805 809 812 816 820 822 826 829 832 835 837 839 840 842 845 847 850 851 852 854 855 857 859 860 861 861 863 864 866 867 866 867
766 773 779 776 776 771 756 759 758 763 777 775 775 795 800 797 802 808 811 814 818 822 825 828 831 833 837 840 841 844 845 847 849 851 853 854 856 858 860 862 862 863 865 866 867 868 869 869 870
758 776 778 771 769 758 753 758 763 764 770 775 776 777 783 793 801 807 813 817 821 824 828 831 832 836 839 842 845 846 848 850 852 854 855 857 858 860 862 864 865 866 868 869 870 869 870 871 873
759 773 766 755 752 752 749 752 762 770 777 783 780 783 790 794 801 807 814 817 821 825 830 832 835 838 841 844 847 849 852 853 854 856 857 859 862 862 864 865 867 868 869 870 871 872 873 874 875
753 759 753 746 746 741 747 753 754 764 778 770 777 783 790 794 802 807 813 817 821 826 830 833 837 840 843 846 849 851 853 854 856 858 860 862 863 864 866 867 869 870 871 872 873 874 876 876 877
751 745 744 742 741 742 748 749 759 748 755 760 761 771 784 793 801 806 811 818 822 827 830 833 838 842 845 848 850 852 855 856 858 860 862 864 865 866 868 870 871 872 873 874 875 876 877 877 878
745 746 744 742 743 741 745 749 755 762 757 764 771 778 788 795 803 808 812 819 823 827 830 833 839 843 846 848 851 853 856 858 860 861 864 865 866 868 869 870 872 873 874 875 876 877 878 878 879
740 743 743 745 746 741 746 753 752 770 763 769 774 780 788 795 801 807 812 818 822 826 830 834 839 844 847 849 851 853 856 859 860 863 865 866 867 868 870 872 873 874 875 875 877 878 879 880 881
738 751 749 750 747 745 746 760 767 762 768 773 778 781 788 796 803 806 810 815 820 825 829 834 839 844 847 849 851 854 856 859 861 863 864 866 867 869 871 872 874 875 876 877 878 879 880 881 883
744 751 762 753 749 746 749 772 768 765 769 778 782 785 788 795 801 807 811 815 820 824 828 834 839 843 846 849 851 854 857 859 861 862 864 866 868 870 872 873 874 875 876 878 879 880 881 883 884
747 755 761 758 753 750 753 774 770 768 770 778 784 786 789 794 801 805 809 814 817 820 826 833 838 841 845 848 851 854 856 858 861 863 864 866 868 870 872 873 874 876 877 878 879 880 881 883 884
754 756 758 763 759 756 761 771 770 772 772 776 784 787 790 793 797 802 807 812 817 820 826 832 837 841 844 847 851 854 856 858 860 862 864 866 868 870 871 873 874 875 877 878 879 880 881 883 884
736 746 753 758 755 758 765 776 771 774 778 781 786 789 789 792 798 803 805 810 814 819 824 829 834 839 843 846 849 852 854 857 859 861 863 865 867 869 870 872 873 875 876 877 878 879 881 883 885
739 753 758 756 753 760 769 774 775 772 773 773 781 787 788 791 795 801 804 809 812 816 821 826 830 835 840 844 847 850 853 855 858 859 861 863 866 868 869 870 872 874 875 876 877 878 880 882 884
747 748 757 758 758 765 769 777 776 773 774 778 780 783 787 788 791 797 802 806 809 812 816 822 827 831 835 840 845 849 852 854 855 857 859 860 863 866 868 869 871 872 874 875 876 878 878 880 882
749 746 749 757 763 783 767 801 780 774 775 778 780 783 783 785 790 794 797 801 804 808 814 820 824 828 832 836 840 843 846 848 851 853 856 859 860 862 865 867 869 870 872 873 874 875 877 878 880
745 743 750 755 771 777 776 794 782 775 779 777 776 777 779 780 784 789 792 796 801 807 810 816 822 825 829 833 836 840 843 845 848 852 854 856 858 860 863 864 866 868 869 871 872 872 873 875 876
739 751 760 770 778 792 783 785 779 772 759 770 770 770 772 776 780 785 790 795 800 804 809 814 818 821 825 828 832 835 838 841 845 848 851 853 855 857 860 862 863 865 866 867 868 870 870 871 872
740 747 787 793 799 790 784 782 775 761 752 753 761 764 765 769 774 780 784 789 795 800 804 808 812 815 819 823 826 830 833 837 840 843 847 849 851 853 856 858 860 862 863 865 866 866 867 868 869
745 754 766 798 803 792 788 787 767 752 749 747 748 751 758 763 767 773 777 782 788 792 797 802 806 810 813 818 822 827 831 834 836 839 842 844 846 848 852 855 856 858 860 862 863 864 864 865 866
748 760 753 784 784 786 787 770 755 754 754 753 754 756 759 761 765 767 771 775 780 785 788 793 800 804 808 813 818 823 827 830 832 835 837 839 841 844 847 850 852 855 856 858 859 860 861 862 863
744 747 767 775 791 784 791 777 773 781 783 769 760 760 760 762 767 769 771 773 777 780 786 791 796 801 805 810 814 818 821 825 827 830 831 833 836 839 842 845 848 850 853 854 856 857 859 860 861
751 753 757 762 779 790 795 786 793 795 797 785 788 785 780 777 777 779 778 777 781 783 786 790 795 799 801 804 807 811 813 816 820 823 825 827 831 834 837 839 843 845 848 850 851 853 855 856 858
749 753 758 770 769 781 784 789 801 802 804 799 798 794 793 790 788 787 786 784 784 785 788 791 793 790 792 795 799 803 807 811 814 816 819 822 825 829 831 834 837 839 841 844 846 848 850 851 852
Wind_Speed
10 13 13 4 4 4 3 6 3 1 2 5 5 7 8 3 3 4 16 17 29 26 21 21 21 22 22 23 23 24 24 23 23 23 23 23 22 22 22 23 24 25 24 26 26 25 23 23 25
15 14 4 3 4 3 5 4 7 5 7 6 10 5 6 3 4 10 14 29 29 26 24 23 23 24 25 25 24 25 26 24 21 22 23 23 23 23 24 24 24 24 24 25 25 24 24 24 25
18 8 3 5 4 6 3 6 10 4 9 2 6 5 5 5 9 9 23 30 30 26 25 24 26 27 27 27 24 26 24 23 23 20 22 24 24 23 23 23 24 24 23 24 24 24 22 24 23
12 2 3 4 8 4 6 4 7 8 4 6 9 8 5 3 5 17 33 32 31 28 27 26 27 26 25 24 23 23 26 29 26 23 24 24 24 23 23 23 23 23 24 23 25 24 20 23 22
4 3 3 4 6 4 6 1 3 6 4 4 3 4 4 5 24 34 33 32 32 29 27 26 26 26 24 27 23 24 27 27 26 25 25 24 23 22 23 23 22 23 24 22 23 23 23 24 21
3 3 4 5 6 5 4 7 7 4 4 7 11 7 3 24 31 33 33 33 31 30 27 26 27 27 26 26 24 25 26 26 25 24 24 23 23 21 22 21 21 21 21 21 21 23 24 24 20
6 4 6 7 5 3 7 8 7 9 8 3 10 6 7 16 32 32 34 34 32 30 29 28 28 27 26 25 23 23 23 24 25 24 22 22 22 22 22 20 19 20 20 21 21 22 24 21 19
4 4 6 7 7 8 7 8 8 14 3 6 7 7 11 15 32 31 34 34 31 30 30 30 29 28 25 23 22 22 22 22 22 22 21 21 21 21 21 18 18 20 20 20 21 21 19 18 18
5 4 6 10 10 9 5 6 3 3 14 1 2 5 23 34 36 34 29 30 31 30 29 29 28 26 25 23 22 20 19 18 18 19 18 19 20 20 19 18 18 18 19 19 18 19 18 16 16
5 5 9 5 7 5 5 7 12 8 5 4 10 18 27 33 31 29 24 24 27 30 29 28 27 28 27 25 20 19 18 19 21 21 18 18 19 19 19 18 17 17 17 16 15 14 17 17 17
7 7 5 5 5 6 6 4 3 21 4 16 24 23 20 28 25 26 26 27 29 33 30 28 27 25 24 21 20 19 21 23 20 17 16 18 18 18 18 18 17 17 14 13 13 13 12 13 15
10 4 6 4 6 5 5 8 4 20 10 17 30 29 21 20 21 26 27 27 30 32 30 28 26 24 22 22 20 19 21 19 15 16 14 18 19 18 18 16 15 13 12 11 11 13 13 13 13
5 9 3 1 3 5 8 7 6 3 13 18 22 22 20 16 21 25 29 30 30 33 31 29 26 24 24 21 19 23 19 16 16 14 16 16 17 16 14 12 12 11 11 11 13 13 13 14 15
7 11 4 5 6 2 6 5 4 2 18 20 23 21 18 16 23 25 28 29 30 34 34 30 26 25 25 23 22 19 19 18 16 16 15 12 12 14 13 12 11 12 11 12 13 12 13 15 14
7 13 4 2 3 3 7 5 7 16 17 21 20 18 17 15 24 25 30 30 30 34 36 32 30 27 26 25 20 20 19 18 17 16 15 13 16 15 15 14 13 12 11 11 11 12 12 13 14
7 8 8 4 4 2 2 3 4 17 21 18 17 17 16 15 20 24 28 30 32 33 35 30 29 28 29 27 23 23 20 19 19 17 16 14 15 14 14 13 11 11 11 11 12 12 13 13 14
1 13 6 6 7 3 3 5 6 13 18 20 15 17 15 15 16 22 29 31 30 36 36 33 31 28 29 26 21 21 24 21 17 17 17 14 16 14 13 12 11 13 12 12 13 13 14 14 15
10 9 4 8 6 3 4 5 13 13 19 22 16 16 15 15 16 26 25 32 31 33 30 32 31 30 25 27 22 20 22 19 18 19 17 16 16 14 12 11 13 12 13 12 11 14 14 13 16
11 6 11 4 5 6 7 8 16 11 10 17 14 15 17 18 19 24 25 29 34 34 35 35 34 34 28 26 24 25 25 20 19 19 20 18 16 16 17 11 12 12 12 12 12 13 14 16 18
12 12 5 5 4 6 3 5 9 14 17 22 19 16 17 18 20 21 20 25 31 32 36 36 37 35 34 30 28 26 23 22 21 20 23 22 19 16 17 14 13 13 13 13 13 15 17 19 19
5 15 7 10 4 5 7 2 5 5 4 8 10 11 11 17 22 19 22 25 28 32 34 35 37 37 37 35 30 26 25 23 21 25 25 24 20 20 16 15 13 13 14 14 14 14 18 19 18
9 8 9 13 7 6 2 4 3 7 7 12 12 14 16 17 18 15 25 26 31 35 36 37 37 36 36 37 35 34 30 24 25 26 28 26 23 21 19 18 15 15 15 15 15 16 16 17 20
7 9 9 6 5 6 1 4 5 8 7 11 14 16 16 18 18 19 23 31 32 31 37 37 38 36 35 36 37 35 34 34 28 29 27 25 23 20 19 19 17 17 16 15 15 16 18 18 19
7 10 8 5 4 1 5 5 4 9 18 6 12 15 16 17 17 18 24 27 29 30 32 34 37 37 38 39 38 38 37 37 32 31 29 27 26 24 24 22 19 18 17 17 16 16 17 19 18
9 16 3 2 1 5 2 2 7 5 11 13 16 15 15 16 16 16 15 24 27 29 33 37 41 40 41 38 40 39 40 40 38 35 34 32 29 28 28 26 23 21 20 18 18 17 18 19 20
6 7 8 10 6 4 3 6 7 8 6 8 14 18 15 16 16 16 19 26 29 33 35 36 36 37 42 41 39 38 39 41 40 39 38 36 35 32 30 29 27 24 22 20 20 19 18 18 19
2 2 6 8 1 4 2 4 5 4 6 6 6 6 10 13 14 17 21 28 30 33 36 38 36 36 38 38 35 39 41 42 40 38 39 39 38 36 33 32 30 27 26 23 22 21 20 19 19
3 3 3 3 6 4 2 4 2 7 11 12 5 6 6 5 5 6 9 20 24 29 32 33 33 33 35 35 35 40 43 45 44 40 38 40 39 37 36 36 35 31 29 26 25 23 22 21 21
0 1 4 5 4 5 4 5 1 5 9 7 10 12 11 10 10 9 12 10 4 16 26 32 31 30 33 36 39 41 44 45 45 42 39 40 39 39 38 38 38 35 33 30 28 27 25 24 23
1 4 4 4 4 2 3 4 3 5 8 9 11 12 12 12 11 11 15 18 21 14 6 7 22 36 38 39 40 41 41 41 42 43 42 40 41 40 39 38 40 39 37 35 33 31 30 29 28
Wind_Direction
185 172 151 104 89 71 241 245 247 79 60 335 72 128 129 40 127 191 142 146 144 143 148 148 146 142 135 129 126 122 119 117 118 115 112 111 110 108 107 106 104 102 102 100 97 92 90 98 98
185 160 115 97 111 144 253 219 176 209 106 153 78 72 59 94 75 113 121 147 145 143 146 146 145 139 131 126 125 123 120 116 109 112 112 111 109 106 104 102 102 102 101 102 100 95 93 99 100
179 165 105 133 152 198 203 208 206 197 158 247 102 48 92 126 113 128 144 146 144 143 146 143 142 137 132 131 130 128 127 118 113 110 112 111 106 104 105 106 105 106 107 106 103 97 99 102 100
162 32 22 125 204 238 186 268 148 111 121 63 114 72 71 149 120 139 144 145 142 140 142 142 141 137 135 128 131 129 127 121 124 126 118 111 108 107 108 108 110 112 112 110 107 99 103 105 104
138 96 127 170 223 207 243 249 120 97 87 109 154 105 67 55 130 136 145 145 140 138 140 142 141 137 133 128 134 131 121 120 123 121 116 112 110 109 109 109 110 112 110 111 110 99 95 112 106
135 131 138 184 221 187 246 173 167 103 112 135 96 97 74 132 132 145 145 144 139 138 138 140 137 135 131 126 130 126 122 121 120 119 119 115 112 111 109 109 112 108 109 112 113 102 99 114 108
148 135 184 182 195 185 207 146 159 144 144 148 134 100 136 142 148 146 145 141 139 138 138 139 137 134 129 127 124 122 120 124 125 127 124 119 118 116 115 118 114 109 109 108 110 110 99 98 108
145 128 155 198 165 222 181 154 145 143 115 119 138 148 165 155 147 145 141 140 140 140 140 139 137 134 132 131 128 126 124 125 126 126 124 124 122 121 120 120 117 110 109 108 108 113 100 92 113
158 120 194 186 159 196 172 126 63 37 133 2 129 126 148 144 145 135 128 131 139 137 139 139 137 137 136 135 133 130 125 124 133 128 125 123 122 122 123 122 117 114 113 111 112 111 94 93 117
162 152 196 200 173 152 165 138 144 121 144 44 93 108 135 137 135 133 140 139 138 144 146 145 143 141 141 141 139 141 145 141 130 125 122 125 125 123 120 118 117 118 115 114 112 107 103 100 121
174 171 193 228 167 155 133 131 139 136 197 163 147 142 149 138 141 142 145 149 149 150 148 148 149 149 152 150 149 149 143 137 131 127 125 130 128 124 123 122 122 122 120 113 113 120 116 117 123
136 197 166 341 184 161 157 125 134 163 173 162 151 151 151 146 153 151 149 152 152 154 151 153 154 156 156 157 156 149 144 146 142 140 133 139 132 128 126 126 127 130 126 124 132 124 123 121 123
140 194 222 49 314 162 130 149 164 64 117 137 143 145 149 143 153 151 150 154 156 157 158 158 160 163 163 161 157 157 152 153 148 151 149 145 141 138 137 140 145 140 138 136 133 134 133 123 128
167 168 102 131 278 181 129 129 90 22 127 136 151 148 150 147 154 152 156 160 164 162 160 162 168 172 170 162 160 159 166 161 159 158 159 161 167 155 154 153 144 149 143 142 142 137 136 130 129
133 163 76 256 235 192 124 107 157 150 144 146 155 151 149 147 156 162 163 163 166 167 163 167 173 177 175 168 175 172 170 170 172 173 174 160 156 157 161 159 155 150 151 158 158 149 147 143 133
109 146 163 225 193 322 92 169 131 151 144 150 154 158 158 160 158 159 164 167 168 164 164 170 173 185 183 177 180 176 176 173 171 167 168 175 172 176 170 172 176 174 166 166 158 151 147 145 146
143 171 166 146 198 124 83 130 164 160 147 154 158 162 164 168 170 160 168 169 167 169 168 175 178 192 192 179 179 183 182 172 172 175 174 173 180 181 186 179 173 168 165 162 162 154 159 150 145
172 152 135 138 192 52 97 122 161 168 156 161 165 166 169 178 187 179 166 174 171 176 184 181 187 192 182 180 179 184 183 183 182 182 183 183 184 183 186 179 173 173 171 170 164 164 156 153 147
139 105 155 101 184 113 135 131 168 165 155 158 165 173 178 186 187 191 173 176 177 178 183 187 189 190 194 190 187 182 183 189 192 190 190 188 187 188 183 178 176 179 183 176 172 162 161 149 150
133 126 108 63 148 95 139 119 166 168 176 171 174 181 179 178 189 188 179 178 178 179 182 187 191 191 194 192 194 194 194 195 198 198 189 188 189 196 193 192 188 184 183 183 179 178 161 163 163
139 154 152 143 112 53 108 3 144 196 126 177 184 171 179 184 189 192 185 185 184 185 185 187 191 195 194 196 194 198 201 198 194 195 192 189 195 201 200 203 201 195 192 188 189 187 183 174 185
144 163 122 135 128 176 115 229 242 189 177 178 174 177 188 188 195 193 197 194 190 192 190 194 195 191 192 198 200 203 201 196 200 197 197 194 195 202 209 209 209 206 206 207 204 202 201 201 198
182 143 131 132 101 107 192 95 252 167 207 189 185 191 193 191 193 198 199 199 200 193 193 192 196 201 200 203 206 209 209 209 208 202 199 198 199 208 218 211 212 212 217 214 212 210 210 210 212
124 96 60 64 87 128 221 140 260 192 197 171 193 197 192 191 195 199 202 197 198 197 196 196 199 202 213 212 210 213 211 211 208 208 205 204 208 211 218 213 216 218 219 218 218 217 217 215 217
117 140 106 62 27 195 288 151 234 212 193 182 187 197 194 192 187 189 185 189 190 189 194 199 204 207 210 213 213 216 216 217 214 212 211 210 208 211 214 211 216 218 222 222 222 222 222 220 222
128 147 156 165 173 195 80 217 240 215 208 194 186 194 185 188 190 187 188 185 189 190 194 199 203 208 211 211 217 219 220 219 220 220 218 217 216 217 218 217 221 222 221 223 224 225 224 223 222
219 113 162 101 6 94 212 272 325 23 201 225 200 152 193 191 188 190 189 190 188 192 194 197 201 206 209 210 211 216 221 223 224 226 225 225 224 220 220 221 223 223 222 224 225 226 226 224 224
110 189 100 31 140 178 279 251 215 348 337 321 236 219 192 159 170 193 191 192 193 195 197 199 203 203 209 212 212 216 221 227 229 229 229 227 229 226 224 223 224 224 224 226 226 227 227 225 222
177 186 63 116 127 153 159 244 43 332 345 24 19 33 34 46 46 37 34 48 189 201 199 203 205 208 213 217 217 219 222 226 227 231 235 231 232 229 229 227 224 224 223 225 227 228 228 225 224
290 184 129 118 205 165 145 243 50 50 23 26 27 27 30 36 38 37 38 43 45 47 64 213 219 212 216 219 220 221 222 223 226 232 235 236 234 234 233 231 228 226 225 226 227 228 228 228 226